OE-11204 Weather Reports


Display with metric or nautical units.
time (UTC)temp
F
wind
direction
speed
MPH
gust
MPH
rain 1hr
in
rain 24hr
in
rain mn
in
humidity
%
barometer
mb
20260903081129 66 130 2.0 5.0 0.00 0.32 0.00 69 1022.1
20260903080516 66 140 1.0 4.0 0.00 0.32 0.00 73 1022.3
20260903075516 65 180 2.0 4.0 0.00 0.32 0.00 72 1022.4
20260903074129 65 177 1.0 4.0 0.00 0.32 0.00 73 1022.6
20260903073515 64 338 1.0 4.0 0.00 0.32 0.00 80 1022.8
20260903072515 63 333 1.0 4.0 0.00 0.32 0.00 76 1023.0
20260903071129 62 14 1.0 4.0 0.00 0.32 0.00 83 1023.1
20260903070516 61 196 1.0 2.0 0.00 0.32 0.00 84 1023.3
20260903065516 61 259 1.0 4.0 0.00 0.32 0.00 90 1023.4
20260903064128 59 224 2.0 4.0 0.00 0.32 0.00 93 1023.7
20260903063515 58 172 1.0 3.0 0.00 0.32 0.00 94 1023.8
20260903062516 57 150 1.0 3.0 0.00 0.32 0.00 96 1024.0
20260903061129 57 327 1.0 3.0 0.00 0.32 0.00 98 1023.9
20260903060516 56 300 3.0 4.0 0.00 0.32 0.00 98 1024.2
20260903055515 55 282 2.0 5.0 0.00 0.32 0.00 98 1024.2
20260903054128 55 258 2.0 6.0 0.00 0.32 0.00 99 1024.0
20260903053516 55 167 0.0 2.0 0.00 0.32 0.00 99 1024.1
20260903052516 55 116 1.0 2.0 0.00 0.32 0.00 99 1024.1
20260903051129 55 360 0.0 2.0 0.00 0.32 0.00 99 1024.0
20260903050515 55 221 1.0 2.0 0.00 0.32 0.00 99 1023.8
20260903045516 55 73 0.0 2.0 0.00 0.32 0.00 99 1023.8
20260903044128 55 284 1.0 2.0 0.00 0.32 0.00 99 1023.7
20260903043515 56 358 1.0 2.0 0.00 0.32 0.00 100 1023.6
20260903042516 56 243 1.0 2.0 0.00 0.32 0.00 99 1023.6
20260903041128 56 339 1.0 2.0 0.00 0.32 0.00 99 1023.6
20260903040516 56 298 0.0 2.0 0.00 0.32 0.00 99 1023.6
20260903035516 56 5 2.0 3.0 0.00 0.32 0.00 98 1023.7
20260903034515 56 53 1.0 3.0 0.00 0.32 0.00 98 1023.6
20260903033515 56 151 2.0 3.0 0.00 0.32 0.00 99 1023.5
20260903032516 56 164 2.0 4.0 0.00 0.32 0.00 99 1023.6
20260903031129 56 133 2.0 4.0 0.00 0.32 0.00 98 1023.6
20260903030516 56 110 2.0 2.0 0.00 0.32 0.00 97 1023.2
20260903025516 56 23 1.0 2.0 0.00 0.32 0.00 96 1023.3
20260903024516 57 279 0.0 1.0 0.00 0.32 0.00 96 1023.5
20260903023516 57 168 1.0 3.0 0.00 0.32 0.00 96 1023.1
20260903022516 58 145 1.0 3.0 0.00 0.32 0.00 96 1023.0
20260903021128 58 136 1.0 2.0 0.00 0.32 0.00 96 1023.0
20260903020516 58 282 2.0 4.0 0.00 0.32 0.00 96 1023.0
20260903015516 58 283 3.0 5.0 0.00 0.32 0.00 96 1022.9
20260903014128 58 296 2.0 3.0 0.00 0.32 0.00 96 1022.9
20260903013515 58 320 1.0 3.0 0.00 0.32 0.00 96 1022.9
20260903012515 58 290 1.0 2.0 0.00 0.32 0.00 96 1022.9
20260903011129 58 210 1.0 2.0 0.00 0.32 0.00 96 1023.0
20260903010516 58 145 1.0 2.0 0.00 0.32 0.00 96 1023.0
20260903005516 58 195 1.0 3.0 0.00 0.32 0.00 96 1022.8
20260903004129 59 360 0.0 1.0 0.00 0.32 0.00 96 1022.8
20260903003516 59 113 1.0 2.0 0.00 0.32 0.00 96 1022.8
20260903002516 59 360 0.0 2.0 0.00 0.32 0.00 96 1022.8
20260903001528 59 30 1.0 2.0 0.00 0.32 0.00 96 1022.8
20260903000515 59 317 1.0 3.0 0.00 0.32 0.00 96 1022.7
20260902235515 59 267 1.0 2.0 0.00 0.32 0.00 96 1022.8
20260902234128 59 150 2.0 3.0 0.00 0.32 0.00 96 1022.8
20260902233515 59 250 1.0 4.0 0.00 0.32 0.00 96 1022.8
20260902232515 60 307 1.0 2.0 0.00 0.32 0.00 96 1022.7
20260902231516 60 341 2.0 2.0 0.00 0.32 0.00 96 1022.7
20260902230515 60 55 0.0 3.0 0.00 0.32 0.00 96 1022.8
20260902225516 60 149 3.0 4.0 0.00 0.32 0.00 96 1022.7
20260902224129 60 137 3.0 5.0 0.00 0.32 0.00 96 1022.7
20260902223516 60 121 2.0 4.0 0.00 0.32 0.00 96 1022.6
20260902222516 60 3 1.0 2.0 0.00 0.32 0.00 95 1022.5
20260902221129 60 299 3.0 4.0 0.00 0.32 0.00 96 1022.5
20260902220515 60 267 2.0 5.0 0.00 0.32 0.32 96 1022.6
20260902215515 60 239 4.0 7.0 0.00 0.32 0.32 96 1022.5
20260902214129 60 219 1.0 5.0 0.00 0.32 0.32 95 1022.5
20260902213515 60 63 2.0 4.0 0.00 0.32 0.32 95 1022.4
20260902211130 60 160 2.0 3.0 0.00 0.32 0.32 95 1022.3
20260902210516 60 170 2.0 4.0 0.00 0.32 0.32 96 1022.2
20260902205516 60 205 2.0 4.0 0.00 0.32 0.32 94 1022.1
20260902204130 61 239 2.0 4.0 0.00 0.32 0.32 94 1021.9
20260902203515 61 329 1.0 4.0 0.00 0.32 0.32 94 1021.9
20260902202516 61 69 2.0 5.0 0.02 0.32 0.32 93 1021.9
20260902201129 61 94 2.0 6.0 0.14 0.32 0.32 94 1021.9
20260902200516 61 171 2.0 6.0 0.14 0.32 0.32 94 1021.6
20260902195516 61 57 3.0 5.0 0.14 0.33 0.32 92 1021.5
20260902194129 62 111 2.0 4.0 0.14 0.33 0.32 90 1021.2
20260902193516 62 35 2.0 5.0 0.14 0.34 0.32 91 1021.2
20260902192515 62 99 3.0 6.0 0.14 0.39 0.32 92 1020.9
20260902191129 63 179 2.0 7.0 0.12 0.38 0.31 88 1020.8
20260902190515 64 282 4.0 8.0 0.00 0.26 0.19 85 1020.7
20260902185516 64 204 1.0 4.0 0.00 0.26 0.19 88 1020.4
20260902184129 63 93 1.0 5.0 0.00 0.27 0.19 90 1020.3
20260902183516 62 116 1.0 6.0 0.00 0.27 0.19 93 1020.1
20260902182516 63 139 3.0 7.0 0.00 0.27 0.19 92 1019.9
20260902181129 64 137 2.0 4.0 0.00 0.27 0.19 92 1019.7
20260902180516 64 319 2.0 6.0 0.00 0.27 0.19 91 1019.5
20260902175516 64 204 2.0 6.0 0.00 0.27 0.19 92 1019.3
20260902174129 64 167 2.0 4.0 0.00 0.27 0.19 89 1019.0
20260902173515 64 76 2.0 3.0 0.00 0.27 0.19 88 1018.9
20260902172516 64 116 2.0 4.0 0.00 0.27 0.19 86 1018.8
20260902171129 65 124 3.0 7.0 0.01 0.27 0.19 82 1018.6
20260902170516 66 167 2.0 4.0 0.03 0.27 0.19 89 1018.1
20260902165516 68 141 2.0 6.0 0.04 0.27 0.19 83 1017.8
20260902164129 69 335 2.0 5.0 0.06 0.27 0.19 82 1017.5
20260902163516 69 190 2.0 7.0 0.11 0.27 0.19 86 1017.4
20260902162516 69 212 5.0 9.0 0.16 0.27 0.19 84 1017.4
20260902161129 69 39 2.0 6.0 0.17 0.27 0.19 81 1017.4
20260902160515 69 346 2.0 7.0 0.17 0.26 0.17 87 1017.3
20260902155516 69 299 4.0 8.0 0.16 0.24 0.16 86 1017.5
20260902154129 71 275 1.0 5.0 0.14 0.22 0.14 78 1017.2
20260902153516 71 290 4.0 8.0 0.13 0.21 0.13 80 1017.0
20260902152515 72 315 1.0 9.0 0.07 0.15 0.07 78 1016.8
20260902151129 74 128 7.0 12.0 0.03 0.11 0.03 64 1016.2
20260902150516 74 129 7.0 13.0 0.02 0.10 0.02 62 1016.0
20260902145516 75 124 10.0 19.0 0.00 0.09 0.00 58 1015.7
20260902144129 76 118 11.0 18.0 0.00 0.08 0.00 54 1015.8
20260902143516 78 127 10.0 17.0 0.00 0.08 0.00 52 1015.6
20260902142516 79 133 9.0 17.0 0.00 0.08 0.00 52 1015.5
20260902141129 79 124 8.0 19.0 0.00 0.08 0.00 52 1015.5
20260902140516 78 122 9.0 15.0 0.00 0.08 0.00 53 1015.5
20260902135516 78 113 7.0 15.0 0.00 0.08 0.00 52 1015.7
20260902134128 78 121 10.0 18.0 0.00 0.08 0.00 51 1015.8
20260902133516 78 119 10.0 17.0 0.00 0.08 0.00 51 1016.1
20260902132516 78 120 10.0 17.0 0.00 0.08 0.00 53 1016.2
20260902131129 77 123 9.0 18.0 0.00 0.08 0.00 52 1016.5
20260902130516 76 108 5.0 12.0 0.00 0.08 0.00 54 1016.7
20260902125516 76 129 6.0 13.0 0.00 0.08 0.00 55 1017.1
20260902124128 76 113 11.0 20.0 0.00 0.08 0.00 55 1016.9
20260902123516 76 121 9.0 15.0 0.00 0.08 0.00 54 1017.0
20260902122516 76 107 9.0 17.0 0.00 0.08 0.00 52 1017.2
20260902121129 77 114 10.0 17.0 0.00 0.08 0.00 53 1017.3
20260902120515 76 112 9.0 17.0 0.00 0.08 0.00 54 1017.5
20260902115515 76 116 9.0 16.0 0.00 0.08 0.00 54 1017.7
20260902114129 76 115 9.0 15.0 0.00 0.08 0.00 53 1017.8
20260902113516 76 113 9.0 16.0 0.00 0.08 0.00 52 1018.0
20260902112516 76 106 10.0 16.0 0.00 0.08 0.00 54 1018.4
20260902111129 75 109 9.0 16.0 0.00 0.08 0.00 53 1018.5
20260902110516 75 107 10.0 17.0 0.00 0.08 0.00 56 1018.8
20260902105515 74 112 9.0 15.0 0.00 0.08 0.00 54 1019.0
20260902104129 74 113 9.0 15.0 0.00 0.08 0.00 57 1019.3
20260902103516 74 108 8.0 12.0 0.00 0.08 0.00 56 1019.2
20260902102515 73 111 9.0 15.0 0.00 0.08 0.00 58 1019.4
20260902101129 73 107 9.0 14.0 0.00 0.08 0.00 59 1019.8
20260902100516 73 118 4.0 9.0 0.00 0.08 0.00 63 1019.9
20260902095516 73 110 5.0 9.0 0.00 0.08 0.00 62 1020.2
20260902094129 71 119 6.0 11.0 0.00 0.08 0.00 66 1020.5
20260902093516 71 108 5.0 9.0 0.00 0.08 0.00 68 1020.3
20260902092515 71 109 6.0 11.0 0.00 0.08 0.00 67 1020.6
20260902091128 70 113 5.0 9.0 0.00 0.08 0.00 67 1020.7
20260902090516 69 113 5.0 9.0 0.00 0.08 0.00 65 1020.8
20260902084128 69 108 6.0 9.0 0.00 0.08 0.00 67 1021.1
20260902083516 69 104 5.0 9.0 0.00 0.08 0.00 69 1021.1
20260902082516 68 133 2.0 5.0 0.00 0.08 0.00 69 1021.3